[[{"header":{"parameterUnit":"m.s-1","parameterCategory":1,"la1":30.2991,"la2":30.254,"lo1":-89.0895,"lo2":-89.0444,"dy":0.0017,"dx":0.0017,"nx":28,"ny":28,"refTime":"2023-04-16T21:00:00:Z","depth":0,"parameterNumber":2,"parameterNumberName":"U-component_of_WINDS"},"data":[0,0,0,0,0,0,0,0,0,0,0,0,0,0,0,0,0,0,0,0,0,0,0,0,0,0,0,0,0,0,0,0,0,0,0,0,0,0,0,0,0,0,0,0,0,0,0,0,0,0,0,0,0,0,0,0,0,0,0.8311,0.8312,0,0.84,0.8401,0.8402,0.8452,0.8453,0.8453,0.8453,0.8545,0.8547,0.8549,0,0,0,0,0,0,0,0,0,0,0,0,0,0.8186,0.8188,0.8311,0.8312,0.8313,0.84,0.8402,0.8403,0.8452,0.8453,0.8453,0.8453,0.8544,0.8547,0.855,0,0,0,0,0,0,0,0,0,0,0,0,0,0.8254,0.8188,0.8311,0.8349,0.8353,0.84,0.8402,0.8403,0.8452,0.8453,0.8453,0.8453,0.8543,0.8547,0.855,0.8567,0,0,0.8561,0.8562,0,0,0,0,0,0,0,0,0.825,0.8259,0.8342,0.8346,0.8351,0.8416,0.8391,0.8458,0.8452,0.8415,0.8453,0.8453,0.8502,0.8509,0.8525,0.8571,0.8575,0.8561,0.8563,0.8565,0.8565,0,0,0,0,0,0,0,0.8245,0.8255,0.8347,0.8343,0.8349,0.8362,0.8372,0.8404,0.8456,0.8418,0.8422,0.8432,0.8504,0.8521,0.8527,0.8576,0.8561,0.8564,0.8566,0.8567,0.8642,0.8642,0,0,0,0,0,0,0.8234,0.8251,0.8344,0.8349,0.83,0.8364,0.8375,0.8395,0.8456,0.8465,0.8431,0.8434,0.8515,0.8523,0.8531,0.8555,0.8564,0.8568,0.857,0.8642,0.8642,0.8642,0,0,0,0,0,0,0.8231,0.8242,0.834,0.8301,0.8315,0.8366,0.8387,0.8396,0.8413,0.8466,0.8475,0.8439,0.8516,0.8526,0.8558,0.8559,0.8569,0.8572,0.8642,0.8642,0.8642,0.8603,0,0,0,0,0,0,0.8228,0.8241,0.8247,0.8301,0.8316,0.8365,0.8387,0.8398,0.8419,0.8423,0.8476,0.8485,0.8517,0.8552,0.8561,0.8564,0.8575,0.8642,0.8642,0.8642,0.8604,0.8601,0.8599,0,0,0,0,0,0.8223,0.8233,0.8247,0.8258,0.8325,0.8365,0.8374,0.841,0.8419,0.8426,0.846,0.8483,0.8557,0.8555,0.8565,0.8569,0.8642,0.8642,0.8642,0.8605,0.8602,0.8599,0,0,0,0,0,0,0.8178,0.824,0.8257,0.8284,0.8319,0.8373,0.8383,0.8405,0.8438,0.8441,0.8485,0.8496,0.8524,0.855,0.8546,0.8589,0.8602,0.8604,0.8571,0.8568,0.8565,0.8559,0.8578,0,0,0,0,0,0.8171,0.8197,0.8251,0.827,0.8286,0.8331,0.835,0.8375,0.8413,0.8428,0.8464,0.85,0.8532,0.8551,0.8583,0.8608,0.8621,0.8616,0.8613,0.8611,0.8612,0.8628,0.8627,0.8641,0.8641,0.8641,0,0,0.8157,0.8195,0.8208,0.8262,0.8291,0.8318,0.8343,0.8371,0.8391,0.8432,0.8464,0.8492,0.8535,0.8564,0.8578,0.8586,0.8611,0.8611,0.8608,0.8611,0.8627,0.8626,0.8625,0.8641,0.8641,0.8641,0,0,0.8146,0.8176,0.8196,0.8225,0.827,0.83,0.8305,0.8356,0.8376,0.8409,0.8441,0.8466,0.8519,0.8549,0.8571,0.8572,0.8594,0.8581,0.8567,0.8582,0.8581,0.858,0.858,0.858,0.8582,0.8582,0.8582,0,0.8123,0.8164,0.8203,0.8229,0.8251,0.829,0.831,0.8337,0.839,0.8405,0.8413,0.8481,0.8513,0.8549,0.855,0.8566,0.8573,0.8575,0.8578,0.8577,0.8577,0.8578,0.8578,0.858,0.858,0.858,0.858,0,0.8134,0.8162,0.8173,0.8223,0.8247,0.8269,0.8312,0.8332,0.8356,0.8385,0.8419,0.8458,0.8499,0.851,0.8533,0.855,0.8554,0.8569,0.8583,0.8573,0.8575,0.8576,0.8577,0.8578,0.8578,0.8579,0,0,0.8096,0.8168,0.8171,0.8194,0.8247,0.827,0.8295,0.8335,0.8351,0.8386,0.8409,0.8453,0.8468,0.8493,0.8521,0.8534,0.8532,0.8548,0.855,0.8544,0.8554,0.8541,0.8541,0.8548,0.8548,0.8548,0.855,0,0.8092,0.8138,0.8174,0.8207,0.8234,0.8272,0.8293,0.8328,0.8357,0.8384,0.8416,0.8447,0.8465,0.848,0.8495,0.8529,0.8535,0.853,0.8569,0.857,0.8557,0.8542,0.8529,0.8529,0.8551,0.8551,0.8551,0,0.8093,0.8127,0.8162,0.8213,0.8226,0.8245,0.8285,0.831,0.8351,0.8371,0.8399,0.8428,0.8456,0.8468,0.8508,0.8504,0.8523,0.8542,0.8543,0.8548,0.856,0.8546,0.853,0.8529,0.8553,0.8553,0.8552,0,0.8062,0.8117,0.8145,0.8164,0.8224,0.8236,0.8262,0.8303,0.8325,0.836,0.8375,0.8413,0.8433,0.8463,0.8501,0.8506,0.8537,0.8552,0.8555,0.8554,0.856,0.8559,0.8545,0.8572,0.8572,0.8572,0.8572,0,0.8054,0.8074,0.8132,0.8149,0.8173,0.8215,0.8238,0.8267,0.8303,0.8327,0.8362,0.8384,0.8433,0.8461,0.8492,0.8521,0.853,0.8547,0.8555,0.8544,0.8542,0.8556,0.8557,0.8572,0.8572,0.8572,0.8572,0,0.8022,0.8062,0.8095,0.8149,0.8164,0.8179,0.8225,0.8244,0.8275,0.8305,0.8315,0.8363,0.8398,0.8439,0.8488,0.8508,0.8535,0.8546,0.8521,0.8525,0.8526,0.8525,0.8521,0.8523,0.8548,0.8547,0.8547,0,0.8014,0.8031,0.8086,0.8105,0.813,0.8159,0.8182,0.8224,0.8246,0.8295,0.8308,0.8345,0.8378,0.8432,0.8472,0.8509,0.8522,0.8518,0.8528,0.8516,0.8522,0.852,0.8522,0.8515,0.8515,0.8514,0.8514,0,0.7996,0.8015,0.8046,0.8084,0.811,0.8142,0.8176,0.819,0.8239,0.8262,0.8299,0.8324,0.8373,0.841,0.8453,0.848,0.8505,0.8511,0.8513,0.8502,0.8487,0.8495,0.8513,0.851,0.8511,0.8511,0.8511,0.8511,0.7976,0.7992,0.8034,0.8068,0.8098,0.8129,0.8149,0.8183,0.8214,0.8257,0.8281,0.8317,0.8358,0.8418,0.8444,0.8473,0.8482,0.8486,0.8487,0.8487,0.8484,0.8482,0.8481,0.8481,0.8481,0.8482,0.8482,0,0.7959,0.7988,0.8019,0.8065,0.8092,0.8114,0.8152,0.8173,0.8204,0.8241,0.8272,0.8314,0.835,0.8393,0.8433,0.8448,0.846,0.8457,0.8456,0.8462,0.8474,0.8467,0.8446,0.8446,0.8446,0.8446,0.8446,0.8446,0.7953,0.7983,0.8007,0.8052,0.8081,0.8116,0.8136,0.8165,0.8195,0.824,0.827,0.8298,0.8338,0.838,0.8415,0.8427,0.844,0.8432,0.8448,0.8458,0.8461,0.8464,0.8458,0.8435,0.8435,0.8433,0.8433,0.8433]},{"header":{"parameterUnit":"m.s-1","parameterCategory":1,"la1":30.2991,"la2":30.254,"lo1":-89.0895,"lo2":-89.0444,"dy":0.0017,"dx":0.0017,"nx":28,"ny":28,"refTime":"2023-04-16T21:00:00:Z","depth":0,"parameterNumber":3,"parameterNumberName":"V-component_of_WINDS"},"data":[0,0,0,0,0,0,0,0,0,0,0,0,0,0,0,0,0,0,0,0,0,0,0,0,0,0,0,0,0,0,0,0,0,0,0,0,0,0,0,0,0,0,0,0,0,0,0,0,0,0,0,0,0,0,0,0,0,0,-1.8358,-1.8358,0,-1.8403,-1.8403,-1.8404,-1.8431,-1.8432,-1.8432,-1.8432,-1.8475,-1.8476,-1.8477,0,0,0,0,0,0,0,0,0,0,0,0,0,-1.8296,-1.8297,-1.8358,-1.8359,-1.8359,-1.8403,-1.8403,-1.8404,-1.8431,-1.8432,-1.8432,-1.8432,-1.8474,-1.8476,-1.8477,0,0,0,0,0,0,0,0,0,0,0,0,0,-1.833,-1.8297,-1.8358,-1.8378,-1.838,-1.8402,-1.8403,-1.8404,-1.8431,-1.8432,-1.8432,-1.8432,-1.8474,-1.8475,-1.8477,-1.8481,0,0,-1.8481,-1.8482,0,0,0,0,0,0,0,0,-1.8328,-1.8332,-1.8375,-1.8377,-1.8379,-1.8412,-1.8397,-1.843,-1.8431,-1.8412,-1.8432,-1.8432,-1.8453,-1.8457,-1.8464,-1.8483,-1.8485,-1.8482,-1.8482,-1.8483,-1.8483,0,0,0,0,0,0,0,-1.8326,-1.833,-1.8376,-1.8375,-1.8378,-1.8385,-1.839,-1.8403,-1.8431,-1.8414,-1.8416,-1.8421,-1.8455,-1.8463,-1.8465,-1.8486,-1.8481,-1.8483,-1.8484,-1.8484,-1.8513,-1.8513,0,0,0,0,0,0,-1.832,-1.8328,-1.8374,-1.8377,-1.8354,-1.8386,-1.8391,-1.8401,-1.8431,-1.8435,-1.8421,-1.8422,-1.846,-1.8464,-1.8467,-1.8476,-1.8483,-1.8484,-1.8485,-1.8513,-1.8513,-1.8513,0,0,0,0,0,0,-1.8319,-1.8324,-1.8372,-1.8353,-1.836,-1.8387,-1.8397,-1.8402,-1.841,-1.8436,-1.8441,-1.8424,-1.846,-1.8465,-1.8478,-1.8478,-1.8485,-1.8486,-1.8513,-1.8513,-1.8513,-1.8493,0,0,0,0,0,0,-1.8317,-1.8323,-1.8325,-1.8353,-1.8361,-1.8383,-1.8397,-1.8403,-1.8413,-1.8415,-1.844,-1.8445,-1.8461,-1.8476,-1.848,-1.848,-1.8488,-1.8514,-1.8513,-1.8513,-1.8493,-1.8492,-1.849,0,0,0,0,0,-1.8315,-1.8316,-1.8325,-1.8331,-1.8364,-1.8383,-1.8387,-1.8407,-1.8413,-1.8415,-1.8432,-1.8444,-1.8477,-1.8477,-1.8482,-1.8482,-1.8514,-1.8513,-1.8513,-1.8494,-1.8492,-1.849,0,0,0,0,0,0,-1.8286,-1.832,-1.833,-1.8341,-1.8359,-1.8387,-1.8391,-1.8403,-1.8419,-1.842,-1.8443,-1.8449,-1.846,-1.8472,-1.8472,-1.8489,-1.8497,-1.8498,-1.8481,-1.8479,-1.8478,-1.8475,-1.8489,0,0,0,0,0,-1.8281,-1.8294,-1.8323,-1.833,-1.8339,-1.8363,-1.8372,-1.8386,-1.8405,-1.8412,-1.843,-1.8448,-1.8463,-1.8471,-1.8486,-1.8495,-1.8502,-1.8498,-1.8497,-1.8495,-1.8496,-1.8504,-1.8503,-1.8512,-1.8512,-1.8512,0,0,-1.8271,-1.8291,-1.8298,-1.8325,-1.8341,-1.8354,-1.8369,-1.8382,-1.8392,-1.8414,-1.8429,-1.8442,-1.8463,-1.8475,-1.8481,-1.8486,-1.8495,-1.8495,-1.8494,-1.8495,-1.8503,-1.8502,-1.8501,-1.8512,-1.8512,-1.8512,0,0,-1.8259,-1.8276,-1.8285,-1.83,-1.8324,-1.8341,-1.8343,-1.837,-1.8381,-1.8396,-1.8414,-1.8426,-1.845,-1.8465,-1.8476,-1.8473,-1.8485,-1.8477,-1.8469,-1.8477,-1.8476,-1.8475,-1.8476,-1.8475,-1.8477,-1.8477,-1.8477,0,-1.8243,-1.8265,-1.8287,-1.83,-1.8312,-1.8334,-1.8344,-1.8358,-1.8385,-1.8393,-1.8397,-1.843,-1.8446,-1.8463,-1.8463,-1.847,-1.8474,-1.8474,-1.8474,-1.8474,-1.8474,-1.8474,-1.8474,-1.8476,-1.8477,-1.8477,-1.8477,0,-1.8245,-1.8259,-1.8263,-1.8291,-1.8304,-1.8314,-1.8339,-1.8349,-1.8362,-1.8379,-1.8395,-1.8415,-1.8435,-1.844,-1.8452,-1.8459,-1.8462,-1.847,-1.8478,-1.8472,-1.8473,-1.8473,-1.8475,-1.8475,-1.8476,-1.8476,0,0,-1.8215,-1.8257,-1.8258,-1.8272,-1.8302,-1.8313,-1.8326,-1.8347,-1.8356,-1.8374,-1.8386,-1.8407,-1.8417,-1.8429,-1.8443,-1.845,-1.8449,-1.8458,-1.8459,-1.8456,-1.846,-1.8454,-1.8453,-1.8457,-1.8457,-1.8457,-1.8458,0,-1.8209,-1.8233,-1.8255,-1.8272,-1.8287,-1.8309,-1.832,-1.834,-1.8356,-1.837,-1.8388,-1.8403,-1.8413,-1.8421,-1.8429,-1.8447,-1.845,-1.8447,-1.8468,-1.8469,-1.8463,-1.8454,-1.8447,-1.8447,-1.8459,-1.8459,-1.8459,0,-1.8204,-1.8224,-1.8243,-1.8273,-1.828,-1.829,-1.8313,-1.8326,-1.8349,-1.836,-1.8376,-1.8391,-1.8406,-1.8413,-1.8434,-1.8432,-1.8442,-1.8453,-1.8453,-1.8456,-1.8463,-1.8457,-1.8447,-1.8448,-1.8459,-1.8459,-1.8459,0,-1.8183,-1.8214,-1.823,-1.8241,-1.8276,-1.8283,-1.8298,-1.8321,-1.8333,-1.8353,-1.8361,-1.8382,-1.8393,-1.8408,-1.843,-1.8432,-1.8449,-1.8457,-1.846,-1.8459,-1.8462,-1.8462,-1.8454,-1.8467,-1.8467,-1.8467,-1.8467,0,-1.8174,-1.8184,-1.8221,-1.8231,-1.8244,-1.8269,-1.8282,-1.8298,-1.8319,-1.8333,-1.8353,-1.8365,-1.8392,-1.8408,-1.8424,-1.8441,-1.8445,-1.8455,-1.8459,-1.8454,-1.8453,-1.8461,-1.8461,-1.8467,-1.8467,-1.8467,-1.8467,0,-1.8152,-1.8176,-1.8195,-1.8228,-1.8237,-1.8246,-1.8274,-1.8284,-1.8302,-1.832,-1.8325,-1.8353,-1.8373,-1.8396,-1.8422,-1.8433,-1.8448,-1.8454,-1.8441,-1.8444,-1.8445,-1.8445,-1.8443,-1.8445,-1.8456,-1.8455,-1.8455,0,-1.8145,-1.8154,-1.8189,-1.82,-1.8215,-1.8233,-1.8246,-1.8272,-1.8285,-1.8314,-1.8321,-1.8343,-1.8361,-1.8392,-1.8414,-1.8435,-1.8442,-1.844,-1.8445,-1.844,-1.8444,-1.8443,-1.8445,-1.8439,-1.8438,-1.8438,-1.8438,0,-1.813,-1.8143,-1.8162,-1.8186,-1.8202,-1.8222,-1.8243,-1.825,-1.828,-1.8294,-1.8316,-1.833,-1.8359,-1.838,-1.8405,-1.842,-1.8434,-1.8437,-1.8438,-1.8433,-1.8425,-1.8431,-1.8438,-1.8436,-1.8436,-1.8437,-1.8437,-1.8437,-1.8117,-1.8127,-1.8154,-1.8175,-1.8194,-1.8213,-1.8226,-1.8247,-1.8265,-1.8292,-1.8305,-1.8327,-1.8351,-1.8386,-1.8401,-1.8418,-1.8422,-1.8424,-1.8425,-1.8426,-1.8425,-1.8422,-1.8422,-1.8422,-1.8422,-1.8422,-1.8422,0,-1.8104,-1.8124,-1.8143,-1.8173,-1.819,-1.8203,-1.8228,-1.8241,-1.826,-1.8282,-1.8301,-1.8326,-1.8348,-1.8373,-1.8396,-1.8405,-1.8413,-1.8411,-1.841,-1.8414,-1.8418,-1.8415,-1.8404,-1.8404,-1.8404,-1.8404,-1.8404,-1.8404,-1.81,-1.8119,-1.8135,-1.8164,-1.8183,-1.8205,-1.8218,-1.8237,-1.8255,-1.8283,-1.8302,-1.8318,-1.8342,-1.8368,-1.8388,-1.8395,-1.8403,-1.8399,-1.8408,-1.8412,-1.8413,-1.8415,-1.8412,-1.8401,-1.8401,-1.8403,-1.8403,-1.8403]}]]